FW5729 Weather Reports


Display with metric or nautical units.
time (UTC)temp
F
wind
direction
speed
MPH
gust
MPH
rain 1hr
in
rain 24hr
in
rain mn
in
humidity
%
barometer
mb
20260902053041 84 207 0.0 1.0 0.00 0.00 0.00 65 1014.6
20260902051554 84 0 0.0 1.0 0.00 0.00 0.00 64 1014.6
20260902050047 84 0 0.0 1.0 0.00 0.00 0.00 63 1014.7
20260902044603 85 0 0.0 3.0 0.00 0.00 0.00 62 1014.6
20260902043041 85 0 0.0 2.0 0.00 0.00 0.00 60 1014.8
20260902041544 86 0 0.0 1.0 0.00 0.00 0.00 60 1014.6
20260902040040 86 0 0.0 2.0 0.00 0.00 0.00 59 1014.5
20260902034541 86 0 0.0 1.0 0.00 0.00 0.00 58 1014.4
20260902033041 87 0 0.0 1.0 0.00 0.00 0.00 58 1014.3
20260902031553 87 0 0.0 1.0 0.00 0.00 0.00 57 1014.0
20260902030039 88 0 0.0 3.0 0.00 0.00 0.00 56 1013.6
20260902024550 88 0 0.0 2.0 0.00 0.00 0.00 54 1013.5
20260902023040 88 248 0.0 2.0 0.00 0.00 0.00 53 1013.2
20260902021539 89 0 0.0 0.0 0.00 0.00 0.00 51 1013.0
20260902020042 89 0 0.0 0.0 0.00 0.00 0.00 49 1012.8
20260902014544 90 0 0.0 0.0 0.00 0.00 0.00 49 1012.7
20260902013040 91 0 0.0 0.0 0.00 0.00 0.00 48 1012.5
20260902011540 92 0 0.0 1.0 0.00 0.00 0.00 48 1012.3
20260902010040 92 0 0.0 5.0 0.00 0.00 0.00 46 1012.3
20260902004541 93 92 3.0 6.0 0.00 0.00 0.00 44 1012.1
20260902003040 93 82 1.0 5.0 0.00 0.00 0.00 43 1012.3
20260902001540 94 64 1.0 3.0 0.00 0.00 0.00 42 1012.3
20260902000039 94 60 2.0 6.0 0.00 0.00 0.00 42 1012.3
20260901234539 95 64 4.0 6.0 0.00 0.00 0.00 39 1012.3
20260901233036 97 63 5.0 8.0 0.00 0.00 0.00 38 1012.3
20260901231546 97 10 2.0 8.0 0.00 0.00 0.00 38 1012.2
20260901230047 97 0 3.0 8.0 0.00 0.00 0.00 37 1012.3
20260901224540 97 0 0.0 7.0 0.00 0.00 0.00 37 1012.3
20260901223042 97 52 0.0 11.0 0.00 0.00 0.00 38 1012.2
20260901221540 98 0 2.0 8.0 0.00 0.00 0.00 37 1012.3
20260901220040 98 58 4.0 10.0 0.00 0.00 0.00 37 1012.2
20260901214539 97 62 3.0 6.0 0.00 0.00 0.00 37 1012.4
20260901213039 97 80 6.0 10.0 0.00 0.00 0.00 39 1012.5
20260901211541 97 53 0.0 9.0 0.00 0.00 0.00 40 1012.8
20260901210038 99 71 3.0 8.0 0.00 0.00 0.00 37 1013.0
20260901204542 99 319 1.0 5.0 0.00 0.00 0.00 37 1013.2
20260901203045 97 0 0.0 9.0 0.00 0.00 0.00 39 1013.2
20260901201547 98 55 0.0 2.0 0.00 0.00 0.00 36 1013.6
20260901200042 97 0 2.0 6.0 0.00 0.00 0.00 39 1013.9
20260901194543 97 48 0.0 7.0 0.00 0.00 0.00 39 1014.0
20260901193041 97 0 0.0 7.0 0.00 0.00 0.00 41 1014.2
20260901191544 96 82 2.0 10.0 0.00 0.00 0.00 41 1014.3
20260901190043 95 0 0.0 11.0 0.00 0.00 0.00 44 1014.7
20260901184540 95 0 5.0 9.0 0.00 0.00 0.00 43 1014.9
20260901183058 94 71 2.0 12.0 0.00 0.00 0.00 46 1015.0
20260901181542 94 45 2.0 6.0 0.00 0.00 0.00 44 1015.3
20260901180040 93 69 3.0 10.0 0.00 0.00 0.00 48 1015.6
20260901174542 93 60 3.0 10.0 0.00 0.00 0.00 49 1015.8
20260901173050 93 63 3.0 9.0 0.00 0.00 0.00 52 1016.0
20260901171552 92 231 3.0 7.0 0.00 0.00 0.00 52 1016.2
20260901170053 92 56 1.0 8.0 0.00 0.00 0.00 52 1016.2
20260901164541 90 53 1.0 7.0 0.00 0.00 0.00 56 1016.4
20260901163104 89 63 4.0 11.0 0.00 0.00 0.00 59 1016.5
20260901161548 88 51 3.0 7.0 0.00 0.00 0.00 60 1016.6
20260901160042 87 79 2.0 7.0 0.00 0.00 0.00 65 1016.5
20260901154545 86 65 6.0 8.0 0.00 0.00 0.00 65 1016.4
20260901153041 86 63 1.0 4.0 0.00 0.00 0.00 68 1016.5
20260901151550 84 0 0.0 5.0 0.00 0.00 0.00 69 1016.6
20260901150043 84 64 3.0 5.0 0.00 0.00 0.00 71 1016.6
20260901144542 85 0 0.0 2.0 0.00 0.00 0.00 69 1016.8
20260901143044 84 0 0.0 2.0 0.00 0.00 0.00 71 1016.8
20260901141544 84 0 0.0 2.0 0.00 0.00 0.00 72 1016.8
20260901140042 85 0 0.0 0.0 0.00 0.00 0.00 69 1016.9
20260901134540 84 0 0.0 0.0 0.00 0.00 0.00 71 1016.8
20260901133046 83 0 0.0 0.0 0.00 0.00 0.00 73 1016.7
20260901131544 82 0 0.0 0.0 0.00 0.00 0.00 74 1016.9
20260901130043 80 0 0.0 0.0 0.00 0.00 0.00 78 1016.5
20260901124543 78 0 0.0 0.0 0.00 0.00 0.00 81 1016.3
20260901123042 74 0 0.0 0.0 0.00 0.00 0.00 86 1016.2
20260901121541 74 0 0.0 0.0 0.00 0.00 0.00 86 1016.1
20260901120054 74 0 0.0 0.0 0.00 0.00 0.00 86 1015.9
20260901114542 74 0 0.0 0.0 0.00 0.00 0.00 85 1016.0
20260901113039 75 0 0.0 0.0 0.00 0.00 0.00 84 1015.9
20260901111551 75 0 0.0 0.0 0.00 0.00 0.00 83 1015.8
20260901110042 75 0 0.0 0.0 0.00 0.00 0.00 82 1015.7
20260901104541 76 0 0.0 0.0 0.00 0.00 0.00 81 1015.8
20260901103055 76 0 0.0 0.0 0.00 0.00 0.00 81 1015.8
20260901101549 76 0 0.0 0.0 0.00 0.00 0.00 80 1015.8
20260901100100 76 0 0.0 0.0 0.00 0.00 0.00 80 1015.5
20260901094546 77 0 0.0 0.0 0.00 0.00 0.00 79 1015.7
20260901093042 77 0 0.0 0.0 0.00 0.00 0.00 78 1015.7
20260901091551 78 0 0.0 0.0 0.00 0.00 0.00 78 1015.9
20260901090049 78 0 0.0 0.0 0.00 0.00 0.00 77 1015.9
20260901084552 78 210 0.0 0.0 0.00 0.00 0.00 78 1015.7
20260901083042 78 0 0.0 0.0 0.00 0.00 0.00 77 1015.8
20260901081541 79 0 0.0 2.0 0.00 0.00 0.00 76 1015.5
20260901080058 79 0 0.0 1.0 0.00 0.00 0.00 76 1015.6
20260901074544 80 0 0.0 2.0 0.00 0.00 0.00 75 1015.6
20260901073048 80 0 0.0 0.0 0.00 0.00 0.00 75 1015.6
20260901071546 81 0 0.0 2.0 0.00 0.00 0.00 73 1015.8
20260901070042 81 0 0.0 1.0 0.00 0.00 0.00 72 1015.9
20260901064541 81 0 0.0 3.0 0.00 0.00 0.00 70 1015.6
20260901063044 82 0 0.0 3.0 0.00 0.00 0.00 69 1015.5
20260901061543 82 0 0.0 4.0 0.00 0.00 0.00 68 1015.4
20260901060043 83 0 0.0 2.0 0.00 0.00 0.00 68 1015.4
20260901054541 83 0 0.0 4.0 0.00 0.00 0.00 67 1015.3